User: anonymous   Login
Location: Newark
(49.3000°N, 9.4667°E)
Time: 16:27:50
(UTC+00:00)
Language:

deb Explorer IX - Orbit

View from above orbital plane
View from above orbital plane
View from above satellite
View from above satellite

Ground track
Ground track

The orbit data is extracted from the following two-line orbital elements,

1    85U 61004C   19144.56765766 +.00000468 +00000-0 +12041-3 0  9990
2    85 038.7732 208.1784 0400196 063.8353 300.2982 14.19717384875653
Epoch (UTC): 24 May 2019 13:37:25
Eccentricity: 0.0400196
inclination: 38.7732°
perigee height: 538 km
apogee height: 1114 km
right ascension of ascending node: 208.1784°
argument of perigee: 63.8353°
revolutions per day: 14.19717384
mean anomaly at epoch: 300.2982°
orbit number at epoch: 87565

The dashed part of the orbit path shows where the satellite is in the earth's shadow,  

DLR